Location: Unspecified
(35.4036°N, 0.0000°E)
Time: 07:35:39
(UTC+00:00)

Vanguard 1 Rocket - All Passes

Search period start: 05 April 2026 00:00
Search period end: 15 April 2026 00:00
Orbit: 654 x 4213 km, 34.3° (Epoch: 28 March)

Date Brightness Start Highest point End Pass type
(mag) Time Alt. Az. Time Alt. Az. Time Alt. Az.
5 Apr - 02:12:24 10° WSW 02:31:45 83° S 02:41:15 10° E visible
5 Apr - 04:46:15 10° W 04:58:49 74° SSW 05:05:15 10° ESE visible
5 Apr - 07:17:35 10° W 07:23:06 22° SW 07:27:05 10° S daylight
5 Apr - 20:03:05 10° SSE 20:16:59 17° SE 20:29:24 10° ESE visible
5 Apr - 22:24:09 10° SSW 22:47:25 46° SSE 23:02:54 10° E visible
6 Apr - 00:55:05 10° WSW 01:17:31 75° SSE 01:29:11 10° E visible
6 Apr - 03:29:38 10° W 03:45:50 84° S 03:53:43 10° E visible
6 Apr - 06:02:11 10° W 06:11:28 43° SSW 06:16:50 10° SE daylight
6 Apr - 21:10:35 10° SSW 21:32:00 34° SE 21:48:35 10° E visible
6 Apr - 23:38:21 10° SW 00:02:38 65° SSE 00:16:42 10° E visible
7 Apr - 02:12:15 10° W 02:32:08 85° S 02:41:54 10° E visible
7 Apr - 04:46:20 10° W 04:59:14 67° SSW 05:05:50 10° ESE visible
7 Apr - 07:18:39 10° W 07:23:08 17° SW 07:26:35 10° S daylight
7 Apr - 19:59:14 10° S 20:16:42 23° SE 20:32:11 10° E visible
7 Apr - 22:22:48 10° SW 22:47:16 53° SSE 23:03:37 10° E visible
8 Apr - 00:54:41 10° WSW 01:17:44 80° SSE 01:29:47 10° E visible
8 Apr - 03:29:37 10° W 03:46:16 81° S 03:54:22 10° ESE visible
8 Apr - 06:02:31 10° W 06:11:37 35° SW 06:17:03 10° SSE daylight
8 Apr - 18:53:00 10° SSE 19:01:39 13° SE 19:10:09 10° ESE visible
8 Apr - 21:08:43 10° SSW 21:31:41 41° SE 21:49:34 10° E visible
8 Apr - 23:37:39 10° WSW 00:02:40 72° SSE 00:17:17 10° E visible
9 Apr - 02:12:09 10° W 02:32:31 86° S 02:42:33 10° E visible
9 Apr - 04:46:24 10° W 04:59:32 58° SSW 05:06:18 10° SE visible
9 Apr - 07:20:32 10° WSW 07:23:03 12° SW 07:25:14 10° SSW daylight
9 Apr - 19:56:31 10° S 20:16:15 29° SE 20:33:55 10° E visible
9 Apr - 22:21:45 10° SW 22:47:05 60° SSE 23:04:12 10° E visible
10 Apr - 00:54:25 10° WSW 01:17:58 84° S 01:30:23 10° E visible
10 Apr - 03:29:35 10° W 03:46:38 76° SSW 03:54:57 10° ESE visible
10 Apr - 06:02:58 10° W 06:11:39 28° SW 06:17:03 10° SSE daylight
10 Apr - 18:47:18 10° SSE 19:01:13 18° SE 19:14:59 10° E visible
10 Apr - 21:07:17 10° SSW 21:31:17 48° SE 21:50:17 10° E visible
10 Apr - 23:37:09 10° WSW 00:02:43 77° SSE 00:17:48 10° E visible
11 Apr - 02:12:03 10° W 02:32:52 85° S 02:43:11 10° E visible
11 Apr - 04:46:28 10° WNW 04:59:42 50° SSW 05:06:40 10° SE visible
11 Apr - 19:54:29 10° SSW 20:15:41 36° SE 20:35:05 10° E visible
11 Apr - 22:20:58 10° SW 22:46:53 67° SSE 23:04:42 10° ENE visible
12 Apr - 00:54:14 10° W 01:18:14 86° S 01:30:59 10° E visible
12 Apr - 03:29:32 10° W 03:46:55 70° SSW 03:55:30 10° ESE visible
12 Apr - 06:03:37 10° W 06:11:32 23° SW 06:16:46 10° S daylight
12 Apr - 18:43:54 10° S 19:00:35 23° SE 19:17:33 10° E visible
12 Apr - 21:06:11 10° SW 21:30:51 55° SSE 21:50:51 10° ENE visible
12 Apr - 23:36:49 10° WSW 00:02:46 82° SSE 00:18:20 10° E visible
13 Apr - 02:11:57 10° W 02:33:11 83° S 02:43:47 10° ESE visible
13 Apr - 04:46:35 10° WNW 04:59:44 42° SW 05:06:52 10° SSE visible
13 Apr - 17:39:01 10° SE 17:46:05 12° SE 17:53:25 10° ESE daylight
13 Apr - 19:52:57 10° SSW 20:15:03 42° SE 20:35:53 10° E visible
13 Apr - 22:20:25 10° WSW 22:46:43 73° SSE 23:05:09 10° E visible
14 Apr - 00:54:06 10° W 01:18:28 87° S 01:31:34 10° E visible
14 Apr - 03:29:26 10° WNW 03:47:05 63° SSW 03:55:56 10° SE visible
14 Apr - 06:04:40 10° W 06:11:17 17° SW 06:16:02 10° SSW daylight
14 Apr - 18:41:33 10° S 18:59:51 29° SE 19:19:07 10° E visible
14 Apr - 21:05:22 10° SW 21:30:26 62° SSE 21:51:16 10° ENE visible
